Time,TemperatureF,DewpointF,PressureIn,WindDirection,WindDirectionDegrees,WindSpeedMPH,WindSpeedGustMPH,Humidity,HourlyPrecipIn,Conditions,Clouds,dailyrainin,SolarRadiationWatts/m^2,SoftwareType,DateUTC
2013-01-28 00:01:00,16.5,-1.2,30.37,NW,315,0.0,2.0,45,0.00,CLR,SCT,0.00,0.0,WeatherDisplay:10.37,2013-01-28 05:01:00,
2013-01-28 00:05:00,16.5,-1.2,30.37,NW,315,0.0,1.0,45,0.00,CLR,SCT,0.00,0.0,WeatherDisplay:10.37,2013-01-28 05:05:00,
2013-01-28 00:10:00,16.5,-1.2,30.36,NW,315,0.0,1.0,45,0.00,CLR,SCT,0.00,0.0,WeatherDisplay:10.37,2013-01-28 05:10:00,
2013-01-28 00:15:00,16.7,-1.0,30.36,NW,315,0.0,1.0,45,0.00,CLR,SCT,0.00,0.0,WeatherDisplay:10.37,2013-01-28 05:15:00,
2013-01-28 00:20:00,16.7,-0.5,30.36,NW,315,0.0,2.0,46,0.00,SCT,SCT,0.00,0.0,WeatherDisplay:10.37,2013-01-28 05:20:00,
2013-01-28 00:25:00,16.7,-0.1,30.36,NNW,327,0.0,2.0,47,0.00,SCT,SCT,0.00,0.0,WeatherDisplay:10.37,2013-01-28 05:25:00,
2013-01-28 00:31:00,16.7,-0.1,30.35,North,355,0.0,2.0,47,0.00,SCT,SCT,0.00,0.0,WeatherDisplay:10.37,2013-01-28 05:31:00,
2013-01-28 00:40:00,16.9,0.1,30.36,North,0,0.0,2.0,47,0.00,SCT,SCT,0.00,0.0,WeatherDisplay:10.37,2013-01-28 05:40:00,
2013-01-28 00:45:00,16.9,0.1,30.35,North,0,0.0,1.0,47,0.00,SCT,SCT,0.00,0.0,WeatherDisplay:10.37,2013-01-28 05:45:00,
2013-01-28 00:55:00,17.1,0.7,30.35,North,0,0.0,2.0,48,0.00,SCT,SCT,0.00,0.0,WeatherDisplay:10.37,2013-01-28 05:55:00,
2013-01-28 01:01:00,16.9,0.5,30.35,North,0,0.0,2.0,48,0.00,SCT,SCT,0.00,0.0,WeatherDisplay:10.37,2013-01-28 06:01:00,
2013-01-28 01:10:00,16.9,0.1,30.35,NW,317,0.0,2.0,47,0.00,SCT,SCT,0.00,0.0,WeatherDisplay:10.37,2013-01-28 06:10:00,
2013-01-28 01:16:00,16.9,0.1,30.34,NW,315,0.0,2.0,47,0.00,SCT,SCT,0.00,0.0,WeatherDisplay:10.37,2013-01-28 06:16:00,
2013-01-28 01:25:00,17.1,0.7,30.35,NW,315,0.0,2.0,48,0.00,CLR,SCT,0.00,0.0,WeatherDisplay:10.37,2013-01-28 06:25:00,
2013-01-28 01:31:00,17.2,0.4,30.36,NW,319,0.0,2.0,47,0.00,CLR,SCT,0.00,0.0,WeatherDisplay:10.37,2013-01-28 06:31:00,
2013-01-28 01:40:00,17.2,0.9,30.36,North,0,0.0,1.0,48,0.00,CLR,SCT,0.00,0.0,WeatherDisplay:10.37,2013-01-28 06:40:00,
2013-01-28 01:46:00,17.2,0.4,30.36,North,351,0.0,2.0,47,0.00,CLR,SCT,0.00,0.0,WeatherDisplay:10.37,2013-01-28 06:46:00,
2013-01-28 01:55:00,17.2,0.9,30.37,NW,315,0.0,2.0,48,0.00,CLR,SCT,0.00,0.0,WeatherDisplay:10.37,2013-01-28 06:55:00,
2013-01-28 02:01:00,17.2,0.9,30.37,NW,315,0.0,2.0,48,0.00,CLR,SCT,0.00,0.0,WeatherDisplay:10.37,2013-01-28 07:01:00,
2013-01-28 02:10:00,17.7,0.9,30.36,North,358,0.0,2.0,47,0.00,SCT,SCT,0.00,0.0,WeatherDisplay:10.37,2013-01-28 07:10:00,
2013-01-28 02:15:00,17.8,0.5,30.36,North,0,0.0,1.0,46,0.00,SCT,SCT,0.00,0.0,WeatherDisplay:10.37,2013-01-28 07:15:00,
2013-01-28 02:25:00,18.0,0.6,30.36,North,0,0.0,2.0,46,0.00,SCT,SCT,0.00,0.0,WeatherDisplay:10.37,2013-01-28 07:25:00,
2013-01-28 02:31:00,18.1,0.8,30.36,North,0,0.0,2.0,46,0.00,SCT,SCT,0.00,0.0,WeatherDisplay:10.37,2013-01-28 07:31:00,
2013-01-28 02:40:00,18.1,0.8,30.35,NE,44,0.0,1.0,46,0.00,SCT,SCT,0.00,0.0,WeatherDisplay:10.37,2013-01-28 07:40:00,
2013-01-28 02:45:00,18.1,0.3,30.35,NE,45,0.0,2.0,45,0.00,SCT,SCT,0.00,0.0,WeatherDisplay:10.37,2013-01-28 07:45:00,
2013-01-28 02:55:00,18.1,1.3,30.34,NNE,14,0.0,2.0,47,0.00,SCT,SCT,0.00,0.0,WeatherDisplay:10.37,2013-01-28 07:55:00,
2013-01-28 03:01:00,18.1,1.3,30.34,NW,320,0.0,2.0,47,0.00,SCT,SCT,0.00,0.0,WeatherDisplay:10.37,2013-01-28 08:01:00,
2013-01-28 03:10:00,18.2,1.3,30.34,NW,315,0.0,2.0,47,0.00,BKN,SCT,0.00,0.0,WeatherDisplay:10.37,2013-01-28 08:10:00,
2013-01-28 03:16:00,18.4,1.5,30.34,NW,315,0.0,2.0,47,0.00,BKN,SCT,0.00,0.0,WeatherDisplay:10.37,2013-01-28 08:16:00,
2013-01-28 03:25:00,18.5,1.6,30.34,NW,319,0.0,2.0,47,0.00,BKN,SCT,0.00,0.0,WeatherDisplay:10.37,2013-01-28 08:25:00,
2013-01-28 03:31:00,18.5,1.6,30.34,NNW,338,0.0,2.0,47,0.00,BKN,SCT,0.00,0.0,WeatherDisplay:10.37,2013-01-28 08:31:00,
2013-01-28 03:40:00,18.7,1.8,30.34,North,0,0.0,2.0,47,0.00,BKN,SCT,0.00,0.0,WeatherDisplay:10.37,2013-01-28 08:40:00,
2013-01-28 03:55:00,18.9,1.9,30.33,North,0,0.0,1.0,47,0.00,BKN,SCT,0.00,0.0,WeatherDisplay:10.37,2013-01-28 08:55:00,
2013-01-28 04:01:00,19.0,2.0,30.34,North,0,0.0,1.0,47,0.00,BKN,SCT,0.00,0.0,WeatherDisplay:10.37,2013-01-28 09:01:00,
2013-01-28 04:10:00,19.1,2.1,30.34,North,0,0.0,1.0,47,0.00,OVC,SCT,0.00,0.0,WeatherDisplay:10.37,2013-01-28 09:10:00,
2013-01-28 04:15:00,19.2,2.3,30.33,North,0,0.0,1.0,47,0.00,OVC,SCT,0.00,0.0,WeatherDisplay:10.37,2013-01-28 09:15:00,
2013-01-28 04:25:00,19.2,1.8,30.33,North,0,0.0,1.0,46,0.00,OVC,SCT,0.00,0.0,WeatherDisplay:10.37,2013-01-28 09:25:00,
2013-01-28 04:31:00,19.2,2.3,30.32,North,355,0.0,2.0,47,0.00,OVC,SCT,0.00,0.0,WeatherDisplay:10.37,2013-01-28 09:31:00,
2013-01-28 04:40:00,19.4,2.4,30.33,NW,315,0.0,1.0,47,0.00,OVC,SCT,0.00,0.0,WeatherDisplay:10.37,2013-01-28 09:40:00,
2013-01-28 04:46:00,19.6,2.6,30.32,NW,315,0.0,1.0,47,0.00,OVC,SCT,0.00,0.0,WeatherDisplay:10.37,2013-01-28 09:46:00,
2013-01-28 04:55:00,19.6,2.6,30.32,NW,315,0.0,1.0,47,0.00,OVC,SCT,0.00,0.0,WeatherDisplay:10.37,2013-01-28 09:55:00,
2013-01-28 05:01:00,19.6,3.0,30.32,NW,315,1.0,2.0,48,0.00,OVC,SCT,0.00,0.0,WeatherDisplay:10.37,2013-01-28 10:01:00,
2013-01-28 05:10:00,19.5,2.5,30.32,WNW,302,1.0,2.0,47,0.00,OVC,SCT,0.00,0.0,WeatherDisplay:10.37,2013-01-28 10:10:00,
2013-01-28 05:15:00,19.4,2.4,30.32,SW,227,0.0,1.0,47,0.00,OVC,SCT,0.00,0.0,WeatherDisplay:10.37,2013-01-28 10:15:00,
2013-01-28 05:25:00,19.2,2.2,30.32,South,180,0.0,1.0,47,0.00,OVC,SCT,0.00,0.0,WeatherDisplay:10.37,2013-01-28 10:25:00,
2013-01-28 05:35:00,18.9,1.9,30.32,South,180,0.0,1.0,47,0.00,OVC,SCT,0.00,0.0,WeatherDisplay:10.37,2013-01-28 10:35:00,
2013-01-28 05:40:00,18.5,1.6,30.32,South,180,0.0,1.0,47,0.00,OVC,SCT,0.00,0.0,WeatherDisplay:10.37,2013-01-28 10:40:00,
2013-01-28 05:45:00,18.3,1.9,30.33,South,180,0.0,2.0,48,0.00,OVC,SCT,0.00,0.0,WeatherDisplay:10.37,2013-01-28 10:45:00,
2013-01-28 05:55:00,18.1,2.1,30.32,South,180,0.0,2.0,49,0.00,OVC,SCT,0.00,0.0,WeatherDisplay:10.37,2013-01-28 10:55:00,
2013-01-28 06:00:00,17.8,2.3,30.33,SSW,203,0.0,2.0,50,0.00,OVC,SCT,0.00,0.0,WeatherDisplay:10.37,2013-01-28 11:00:00,
2013-01-28 06:10:00,17.4,2.3,30.32,West,270,0.0,1.0,51,0.00,BKN,SCT,0.00,0.0,WeatherDisplay:10.37,2013-01-28 11:10:00,
2013-01-28 06:15:00,17.2,3.0,30.32,West,270,1.0,2.0,53,0.00,BKN,SCT,0.00,0.0,WeatherDisplay:10.37,2013-01-28 11:15:00,
2013-01-28 06:25:00,17.1,2.4,30.32,West,270,0.0,0.0,52,0.00,BKN,SCT,0.00,0.0,WeatherDisplay:10.37,2013-01-28 11:25:00,
2013-01-28 06:30:00,17.1,2.4,30.32,West,270,0.0,1.0,52,0.00,BKN,SCT,0.00,0.0,WeatherDisplay:10.37,2013-01-28 11:30:00,
2013-01-28 06:40:00,17.1,2.4,30.32,West,270,0.0,0.0,52,0.00,BKN,SCT,0.00,0.0,WeatherDisplay:10.37,2013-01-28 11:40:00,
2013-01-28 06:45:00,17.1,2.8,30.32,West,270,0.0,0.0,53,0.00,BKN,SCT,0.00,0.0,WeatherDisplay:10.37,2013-01-28 11:45:00,
2013-01-28 06:55:00,17.1,2.8,30.31,West,270,0.0,0.0,53,0.00,BKN,SCT,0.00,0.0,WeatherDisplay:10.37,2013-01-28 11:55:00,
2013-01-28 07:00:00,17.1,3.3,30.32,West,270,0.0,0.0,54,0.00,BKN,SCT,0.00,0.0,WeatherDisplay:10.37,2013-01-28 12:00:00,
2013-01-28 07:10:00,17.3,3.5,30.32,West,270,0.0,0.0,54,0.00,SCT,SCT,0.00,0.0,WeatherDisplay:10.37,2013-01-28 12:10:00,
2013-01-28 07:15:00,17.4,4.0,30.32,West,270,0.0,1.0,55,0.00,SCT,SCT,0.00,0.0,WeatherDisplay:10.37,2013-01-28 12:15:00,
2013-01-28 07:25:00,17.4,4.0,30.32,West,270,0.0,1.0,55,0.00,SCT,SCT,0.00,0.0,WeatherDisplay:10.37,2013-01-28 12:25:00,
2013-01-28 07:30:00,17.4,4.4,30.32,West,270,0.0,1.0,56,0.00,SCT,SCT,0.00,0.0,WeatherDisplay:10.37,2013-01-28 12:30:00,
2013-01-28 07:40:00,17.6,4.5,30.32,NW,309,0.0,1.0,56,0.00,SCT,SCT,0.00,0.0,WeatherDisplay:10.37,2013-01-28 12:40:00,
2013-01-28 07:45:00,17.8,4.7,30.32,NW,315,0.0,1.0,56,0.00,SCT,SCT,0.00,0.0,WeatherDisplay:10.37,2013-01-28 12:45:00,
2013-01-28 07:55:00,18.5,5.8,30.33,NW,315,0.0,1.0,57,0.00,SCT,SCT,0.00,0.0,WeatherDisplay:10.37,2013-01-28 12:55:00,
2013-01-28 08:00:00,19.0,6.3,30.32,NW,315,0.0,1.0,57,0.00,SCT,SCT,0.00,0.0,WeatherDisplay:10.37,2013-01-28 13:00:00,
2013-01-28 08:10:00,20.5,7.2,30.32,NNW,337,0.0,1.0,56,0.00,SCT,SCT,0.00,0.0,WeatherDisplay:10.37,2013-01-28 13:10:00,
2013-01-28 08:15:00,20.8,7.2,30.32,North,359,0.0,1.0,55,0.00,SCT,SCT,0.00,0.0,WeatherDisplay:10.37,2013-01-28 13:15:00,
2013-01-28 08:25:00,21.3,6.8,30.32,North,0,0.0,1.0,53,0.00,CLR,SCT,0.00,0.0,WeatherDisplay:10.37,2013-01-28 13:25:00,
2013-01-28 08:30:00,21.9,7.0,30.32,South,180,0.0,1.0,52,0.00,CLR,SCT,0.00,0.0,WeatherDisplay:10.37,2013-01-28 13:30:00,
2013-01-28 08:40:00,23.1,6.8,30.31,SSE,159,1.0,2.0,49,0.00,CLR,SCT,0.00,0.0,WeatherDisplay:10.37,2013-01-28 13:40:00,
2013-01-28 08:45:00,22.8,5.6,30.32,ESE,114,1.0,3.0,47,0.00,CLR,SCT,0.00,0.0,WeatherDisplay:10.37,2013-01-28 13:45:00,
2013-01-28 08:55:00,23.0,5.7,30.31,East,90,1.0,3.0,47,0.00,CLR,SCT,0.00,0.0,WeatherDisplay:10.37,2013-01-28 13:55:00,
2013-01-28 09:00:00,23.0,5.7,30.31,East,90,0.0,3.0,47,0.00,CLR,SCT,0.00,0.0,WeatherDisplay:10.37,2013-01-28 14:00:00,
2013-01-28 09:10:00,23.2,5.9,30.32,East,90,0.0,2.0,47,0.00,CLR,SCT,0.00,0.0,WeatherDisplay:10.37,2013-01-28 14:10:00,
2013-01-28 09:15:00,23.4,6.1,30.31,East,90,0.0,2.0,47,0.00,CLR,SCT,0.00,0.0,WeatherDisplay:10.37,2013-01-28 14:15:00,
2013-01-28 09:25:00,24.1,6.3,30.31,East,90,1.0,2.0,46,0.00,CLR,SCT,0.00,0.0,WeatherDisplay:10.37,2013-01-28 14:25:00,
2013-01-28 09:30:00,24.2,5.9,30.31,East,90,1.0,3.0,45,0.00,CLR,SCT,0.00,0.0,WeatherDisplay:10.37,2013-01-28 14:30:00,
2013-01-28 09:40:00,24.4,6.1,30.31,East,82,1.0,2.0,45,0.00,CLR,SCT,0.00,0.0,WeatherDisplay:10.37,2013-01-28 14:40:00,
2013-01-28 09:45:00,24.4,5.1,30.31,East,90,1.0,3.0,43,0.00,CLR,SCT,0.00,0.0,WeatherDisplay:10.37,2013-01-28 14:45:00,
2013-01-28 09:55:00,24.6,5.3,30.30,East,90,0.0,3.0,43,0.00,CLR,SCT,0.00,0.0,WeatherDisplay:10.37,2013-01-28 14:55:00,
2013-01-28 10:00:00,24.8,5.4,30.31,East,90,1.0,3.0,43,0.00,CLR,SCT,0.00,0.0,WeatherDisplay:10.37,2013-01-28 15:00:00,
2013-01-28 10:10:00,25.0,4.6,30.30,East,96,1.0,3.0,41,0.00,CLR,SCT,0.00,0.0,WeatherDisplay:10.37,2013-01-28 15:10:00,
2013-01-28 10:15:00,25.2,4.7,30.30,East,95,1.0,4.0,41,0.00,CLR,SCT,0.00,0.0,WeatherDisplay:10.37,2013-01-28 15:15:00,
2013-01-28 10:25:00,25.3,5.4,30.30,East,94,0.0,3.0,42,0.00,CLR,SCT,0.00,0.0,WeatherDisplay:10.37,2013-01-28 15:25:00,
2013-01-28 10:30:00,25.5,5.0,30.30,ESE,105,1.0,4.0,41,0.00,CLR,SCT,0.00,0.0,WeatherDisplay:10.37,2013-01-28 15:30:00,
2013-01-28 10:40:00,25.5,4.5,30.29,East,90,1.0,2.0,40,0.00,CLR,SCT,0.00,0.0,WeatherDisplay:10.37,2013-01-28 15:40:00,
2013-01-28 10:45:00,25.8,5.3,30.28,East,90,1.0,3.0,41,0.00,CLR,SCT,0.00,0.0,WeatherDisplay:10.37,2013-01-28 15:45:00,
2013-01-28 10:55:00,26.3,5.7,30.27,ESE,111,0.0,2.0,41,0.00,CLR,SCT,0.00,0.0,WeatherDisplay:10.37,2013-01-28 15:55:00,
2013-01-28 11:00:00,26.9,4.6,30.27,SE,135,1.0,4.0,38,0.00,CLR,SCT,0.00,0.0,WeatherDisplay:10.37,2013-01-28 16:00:00,
2013-01-28 11:10:00,27.4,4.5,30.26,SE,144,1.0,5.0,37,0.00,CLR,SCT,0.00,0.0,WeatherDisplay:10.37,2013-01-28 16:10:00,
2013-01-28 11:15:00,27.7,3.5,30.27,SSE,159,1.0,3.0,35,0.00,CLR,SCT,0.00,0.0,WeatherDisplay:10.37,2013-01-28 16:15:00,
2013-01-28 11:25:00,27.7,4.2,30.26,South,175,0.0,3.0,36,0.00,CLR,SCT,0.00,0.0,WeatherDisplay:10.37,2013-01-28 16:25:00,
2013-01-28 11:30:00,27.7,4.2,30.25,ESE,116,1.0,3.0,36,0.00,CLR,SCT,0.00,0.0,WeatherDisplay:10.37,2013-01-28 16:30:00,
2013-01-28 11:40:00,28.0,4.4,30.25,ESE,120,1.0,4.0,36,0.00,CLR,SCT,0.00,0.0,WeatherDisplay:10.37,2013-01-28 16:40:00,
2013-01-28 11:45:00,28.2,4.0,30.24,ESE,119,1.0,3.0,35,0.00,CLR,SCT,0.00,0.0,WeatherDisplay:10.37,2013-01-28 16:45:00,
2013-01-28 11:55:00,28.2,4.0,30.23,East,83,1.0,2.0,35,0.00,CLR,SCT,0.00,0.0,WeatherDisplay:10.37,2013-01-28 16:55:00,
2013-01-28 12:00:00,28.8,4.5,30.22,ESE,102,1.0,2.0,35,0.00,CLR,SCT,0.00,0.0,WeatherDisplay:10.37,2013-01-28 17:00:00,
2013-01-28 12:10:00,29.3,3.7,30.22,SSE,151,1.0,2.0,33,0.00,CLR,SCT,0.00,0.0,WeatherDisplay:10.37,2013-01-28 17:10:00,
2013-01-28 12:15:00,29.5,5.1,30.22,SSE,168,0.0,2.0,35,0.00,CLR,SCT,0.00,0.0,WeatherDisplay:10.37,2013-01-28 17:15:00,
2013-01-28 12:25:00,29.7,4.0,30.22,NE,55,0.0,2.0,33,0.00,CLR,SCT,0.00,0.0,WeatherDisplay:10.37,2013-01-28 17:25:00,
2013-01-28 12:30:00,29.5,4.5,30.21,NE,38,0.0,2.0,34,0.00,CLR,SCT,0.00,0.0,WeatherDisplay:10.37,2013-01-28 17:30:00,
2013-01-28 12:40:00,29.5,3.9,30.20,SW,217,1.0,2.0,33,0.00,CLR,SCT,0.00,0.0,WeatherDisplay:10.37,2013-01-28 17:40:00,
2013-01-28 12:45:00,29.7,4.7,30.20,South,188,1.0,2.0,34,0.00,CLR,SCT,0.00,0.0,WeatherDisplay:10.37,2013-01-28 17:45:00,
2013-01-28 12:55:00,30.2,5.2,30.19,NNW,339,0.0,2.0,34,0.00,CLR,SCT,0.00,0.0,WeatherDisplay:10.37,2013-01-28 17:55:00,
2013-01-28 13:00:00,30.0,4.3,30.18,NE,47,0.0,2.0,33,0.00,CLR,SCT,0.00,0.0,WeatherDisplay:10.37,2013-01-28 18:00:00,
2013-01-28 13:10:00,30.0,4.3,30.18,SSE,147,1.0,2.0,33,0.00,CLR,SCT,0.00,0.0,WeatherDisplay:10.37,2013-01-28 18:10:00,
2013-01-28 13:15:00,29.8,4.2,30.17,SSE,147,1.0,3.0,33,0.00,CLR,SCT,0.00,0.0,WeatherDisplay:10.37,2013-01-28 18:15:00,
2013-01-28 13:25:00,30.0,5.0,30.15,SE,142,0.0,3.0,34,0.00,SCT,SCT,0.00,0.0,WeatherDisplay:10.37,2013-01-28 18:25:00,
2013-01-28 13:30:00,30.2,5.2,30.16,South,176,1.0,2.0,34,0.00,SCT,SCT,0.00,0.0,WeatherDisplay:10.37,2013-01-28 18:30:00,
2013-01-28 13:40:00,30.2,5.2,30.15,SSE,148,2.0,5.0,34,0.00,SCT,SCT,0.00,0.0,WeatherDisplay:10.37,2013-01-28 18:40:00,
2013-01-28 13:45:00,30.0,6.9,30.14,SSE,168,2.0,6.0,37,0.00,SCT,SCT,0.00,0.0,WeatherDisplay:10.37,2013-01-28 18:45:00,
2013-01-28 13:55:00,29.8,8.4,30.12,SE,144,2.0,5.0,40,0.00,SCT,SCT,0.00,0.0,WeatherDisplay:10.37,2013-01-28 18:55:00,
2013-01-28 14:00:00,29.8,9.0,30.13,South,174,1.0,5.0,41,0.00,SCT,SCT,0.00,0.0,WeatherDisplay:10.37,2013-01-28 19:00:00,
2013-01-28 14:10:00,29.7,9.4,30.12,SSE,155,1.0,5.0,42,0.00,CLR,SCT,0.00,0.0,WeatherDisplay:10.37,2013-01-28 19:10:00,
2013-01-28 14:15:00,29.6,11.3,30.11,SSE,164,2.0,7.0,46,0.00,CLR,SCT,0.00,0.0,WeatherDisplay:10.37,2013-01-28 19:15:00,
2013-01-28 14:25:00,28.6,13.6,30.12,SSE,160,2.0,6.0,53,0.00,CLR,SCT,0.00,0.0,WeatherDisplay:10.37,2013-01-28 19:25:00,
2013-01-28 14:30:00,28.6,13.6,30.12,SSE,161,1.0,2.0,53,0.00,CLR,SCT,0.00,0.0,WeatherDisplay:10.37,2013-01-28 19:30:00,
2013-01-28 14:40:00,27.5,17.3,30.12,South,180,2.0,5.0,65,0.00,-SN,SCT,0.00,0.0,WeatherDisplay:10.37,2013-01-28 19:40:00,
2013-01-28 14:45:00,27.0,18.2,30.11,South,173,2.0,5.0,69,0.00,-SN,SCT,0.00,0.0,WeatherDisplay:10.37,2013-01-28 19:45:00,
2013-01-28 14:55:00,26.6,19.4,30.10,SSE,152,2.0,5.0,74,0.00,-SN,SCT,0.00,0.0,WeatherDisplay:10.37,2013-01-28 19:55:00,
2013-01-28 15:00:00,26.4,19.8,30.10,ESE,122,2.0,4.0,76,0.00,-SN,SCT,0.00,0.0,WeatherDisplay:10.37,2013-01-28 20:00:00,
2013-01-28 15:10:00,25.9,20.6,30.10,ESE,119,1.0,4.0,80,0.00,-SN,SCT,0.00,0.0,WeatherDisplay:10.37,2013-01-28 20:10:00,
2013-01-28 15:15:00,25.7,20.7,30.11,ESE,107,0.0,3.0,81,0.00,-SN,SCT,0.00,0.0,WeatherDisplay:10.37,2013-01-28 20:15:00,
2013-01-28 15:25:00,25.3,20.9,30.10,ESE,113,0.0,3.0,83,0.00,-SN,SCT,0.00,0.0,WeatherDisplay:10.37,2013-01-28 20:25:00,
2013-01-28 15:30:00,25.3,21.2,30.10,East,90,1.0,3.0,84,0.00,-SN,SCT,0.00,0.0,WeatherDisplay:10.37,2013-01-28 20:30:00,
2013-01-28 15:40:00,25.2,21.0,30.09,East,90,0.0,2.0,84,0.00,-SN,SCT,0.00,0.0,WeatherDisplay:10.37,2013-01-28 20:40:00,
2013-01-28 15:45:00,25.0,21.1,30.09,East,90,0.0,2.0,85,0.00,-SN,SCT,0.00,0.0,WeatherDisplay:10.37,2013-01-28 20:45:00,
2013-01-28 15:55:00,25.0,21.4,30.10,East,90,0.0,1.0,86,0.00,-SN,SCT,0.00,0.0,WeatherDisplay:10.37,2013-01-28 20:55:00,
2013-01-28 16:00:00,25.0,21.4,30.09,East,90,0.0,2.0,86,0.00,-SN,SCT,0.00,0.0,WeatherDisplay:10.37,2013-01-28 21:00:00,
2013-01-28 16:10:00,25.0,21.7,30.10,East,95,0.0,2.0,87,0.00,-SN,SCT,0.00,0.0,WeatherDisplay:10.37,2013-01-28 21:10:00,
2013-01-28 16:15:00,25.0,21.7,30.09,ESE,106,0.0,2.0,87,0.00,-SN,SCT,0.00,0.0,WeatherDisplay:10.37,2013-01-28 21:15:00,
2013-01-28 16:25:00,25.0,22.2,30.08,ESE,116,0.0,2.0,89,0.00,-SN,SCT,0.00,0.0,WeatherDisplay:10.37,2013-01-28 21:25:00,
2013-01-28 16:30:00,25.0,22.2,30.07,East,90,0.0,1.0,89,0.00,-SN,SCT,0.00,0.0,WeatherDisplay:10.37,2013-01-28 21:30:00,
2013-01-28 16:40:00,24.8,22.3,30.07,East,92,0.0,0.0,90,0.00,-SN,SCT,0.00,0.0,WeatherDisplay:10.37,2013-01-28 21:40:00,
2013-01-28 16:45:00,24.8,22.3,30.06,East,90,0.0,0.0,90,0.00,-SN,SCT,0.00,0.0,WeatherDisplay:10.37,2013-01-28 21:45:00,
2013-01-28 16:55:00,24.8,22.3,30.06,East,90,0.0,0.0,90,0.00,-SN,SCT,0.00,0.0,WeatherDisplay:10.37,2013-01-28 21:55:00,
2013-01-28 17:01:00,25.0,22.5,30.06,East,99,0.0,0.0,90,0.00,-SN,SCT,0.00,0.0,WeatherDisplay:10.37,2013-01-28 22:01:00,
2013-01-28 17:10:00,25.0,22.5,30.05,South,178,0.0,0.0,90,0.00,-SN,SCT,0.00,0.0,WeatherDisplay:10.37,2013-01-28 22:10:00,
2013-01-28 17:15:00,24.8,22.5,30.04,South,180,0.0,0.0,91,0.00,-SN,SCT,0.00,0.0,WeatherDisplay:10.37,2013-01-28 22:15:00,
2013-01-28 17:25:00,24.8,22.5,30.04,East,96,0.0,0.0,91,0.00,BKN,SCT,0.00,0.0,WeatherDisplay:10.37,2013-01-28 22:25:00,
2013-01-28 17:31:00,24.9,22.7,30.03,East,90,0.0,0.0,91,0.00,BKN,SCT,0.00,0.0,WeatherDisplay:10.37,2013-01-28 22:31:00,
2013-01-28 17:40:00,25.0,22.7,30.03,East,90,0.0,0.0,91,0.00,BKN,SCT,0.00,0.0,WeatherDisplay:10.37,2013-01-28 22:40:00,
2013-01-28 17:45:00,25.0,22.7,30.02,East,90,0.0,0.0,91,0.00,BKN,SCT,0.00,0.0,WeatherDisplay:10.37,2013-01-28 22:45:00,
2013-01-28 17:55:00,25.0,23.0,30.02,SSE,157,0.0,0.0,92,0.00,BKN,SCT,0.00,0.0,WeatherDisplay:10.37,2013-01-28 22:55:00,
2013-01-28 18:01:00,25.0,23.0,30.03,SSE,147,0.0,0.0,92,0.00,BKN,SCT,0.00,0.0,WeatherDisplay:10.37,2013-01-28 23:01:00,
2013-01-28 18:10:00,25.0,23.0,30.02,SSE,158,0.0,0.0,92,0.00,OVC,SCT,0.00,0.0,WeatherDisplay:10.37,2013-01-28 23:10:00,
2013-01-28 18:15:00,25.1,23.1,30.01,SSE,158,0.0,0.0,92,0.00,OVC,SCT,0.00,0.0,WeatherDisplay:10.37,2013-01-28 23:15:00,
2013-01-28 18:25:00,25.0,23.0,30.00,SSE,158,0.0,0.0,92,0.00,OVC,SCT,0.00,0.0,WeatherDisplay:10.37,2013-01-28 23:25:00,
2013-01-28 18:31:00,25.0,23.0,30.01,SSE,158,0.0,0.0,92,0.00,OVC,SCT,0.00,0.0,WeatherDisplay:10.37,2013-01-28 23:31:00,
2013-01-28 18:40:00,25.2,23.2,30.02,SSE,158,0.0,0.0,92,0.00,BKN,SCT,0.00,0.0,WeatherDisplay:10.37,2013-01-28 23:40:00,
2013-01-28 18:45:00,25.2,23.2,30.02,SSE,158,0.0,0.0,92,0.00,BKN,SCT,0.00,0.0,WeatherDisplay:10.37,2013-01-28 23:45:00,
2013-01-28 18:55:00,25.2,23.2,30.00,SSE,158,0.0,0.0,92,0.00,BKN,SCT,0.00,0.0,WeatherDisplay:10.37,2013-01-28 23:55:00,
2013-01-28 19:01:00,25.2,23.2,30.00,SSE,158,0.0,0.0,92,0.00,BKN,SCT,0.00,0.0,WeatherDisplay:10.37,2013-01-29 00:01:00,
2013-01-28 19:10:00,25.2,23.2,30.01,SSE,158,0.0,0.0,92,0.00,OVC,SCT,0.00,0.0,WeatherDisplay:10.37,2013-01-29 00:10:00,
2013-01-28 19:15:00,25.2,23.2,30.01,SSE,158,0.0,0.0,92,0.00,OVC,SCT,0.00,0.0,WeatherDisplay:10.37,2013-01-29 00:15:00,
2013-01-28 19:25:00,25.2,23.2,30.02,SSE,158,0.0,0.0,92,0.00,OVC,SCT,0.00,0.0,WeatherDisplay:10.37,2013-01-29 00:25:00,
2013-01-28 19:31:00,25.2,23.2,30.03,SSE,158,0.0,0.0,92,0.00,OVC,SCT,0.00,0.0,WeatherDisplay:10.37,2013-01-29 00:31:00,
2013-01-28 19:40:00,25.2,23.2,30.02,SSE,158,0.0,0.0,92,0.00,OVC,SCT,0.00,0.0,WeatherDisplay:10.37,2013-01-29 00:40:00,
2013-01-28 19:45:00,25.2,23.2,30.01,SSE,158,0.0,0.0,92,0.00,OVC,SCT,0.00,0.0,WeatherDisplay:10.37,2013-01-29 00:45:00,
2013-01-28 19:55:00,25.2,23.2,30.01,SSE,158,0.0,0.0,92,0.00,OVC,SCT,0.00,0.0,WeatherDisplay:10.37,2013-01-29 00:55:00,
2013-01-28 20:01:00,25.0,23.0,30.00,SSE,158,0.0,0.0,92,0.00,OVC,SCT,0.00,0.0,WeatherDisplay:10.37,2013-01-29 01:01:00,
2013-01-28 20:10:00,25.0,23.0,29.99,SSE,158,0.0,0.0,92,0.00,BKN,SCT,0.00,0.0,WeatherDisplay:10.37,2013-01-29 01:10:00,
2013-01-28 20:15:00,25.0,23.0,29.99,SSE,158,0.0,0.0,92,0.00,BKN,SCT,0.00,0.0,WeatherDisplay:10.37,2013-01-29 01:15:00,
2013-01-28 20:25:00,25.2,23.2,29.98,SSE,158,0.0,0.0,92,0.00,BKN,SCT,0.00,0.0,WeatherDisplay:10.37,2013-01-29 01:25:00,
2013-01-28 20:31:00,25.3,23.3,29.98,SSE,158,0.0,0.0,92,0.00,BKN,SCT,0.00,0.0,WeatherDisplay:10.37,2013-01-29 01:31:00,
2013-01-28 20:40:00,25.2,23.2,29.97,SSE,158,0.0,0.0,92,0.00,BKN,SCT,0.00,0.0,WeatherDisplay:10.37,2013-01-29 01:40:00,
2013-01-28 20:45:00,25.2,23.2,29.98,SSE,158,0.0,0.0,92,0.00,BKN,SCT,0.00,0.0,WeatherDisplay:10.37,2013-01-29 01:45:00,
2013-01-28 20:55:00,25.2,23.2,29.97,SSE,158,0.0,0.0,92,0.00,BKN,SCT,0.00,0.0,WeatherDisplay:10.37,2013-01-29 01:55:00,
2013-01-28 21:01:00,25.2,23.4,29.97,SSE,158,0.0,0.0,93,0.00,BKN,SCT,0.00,0.0,WeatherDisplay:10.37,2013-01-29 02:01:00,
2013-01-28 21:11:00,25.2,23.4,29.97,SSE,158,0.0,0.0,93,0.00,OVC,SCT,0.00,0.0,WeatherDisplay:10.37,2013-01-29 02:11:00,
2013-01-28 21:16:00,25.2,23.4,29.96,SSE,158,0.0,0.0,93,0.00,OVC,SCT,0.00,0.0,WeatherDisplay:10.37,2013-01-29 02:16:00,
2013-01-28 21:26:00,25.2,23.4,29.96,SSE,158,0.0,0.0,93,0.00,OVC,SCT,0.00,0.0,WeatherDisplay:10.37,2013-01-29 02:26:00,
2013-01-28 21:32:00,25.2,23.4,29.96,SSE,158,0.0,0.0,93,0.00,OVC,SCT,0.00,0.0,WeatherDisplay:10.37,2013-01-29 02:32:00,
2013-01-28 21:41:00,25.2,23.4,29.96,SSE,158,0.0,0.0,93,0.00,OVC,SCT,0.00,0.0,WeatherDisplay:10.37,2013-01-29 02:41:00,
2013-01-28 22:01:00,25.2,23.4,29.95,SSE,158,0.0,0.0,93,0.00,OVC,SCT,0.00,0.0,WeatherDisplay:10.37,2013-01-29 03:01:00,
2013-01-28 22:10:00,25.0,23.2,29.95,SSE,158,0.0,0.0,93,0.00,OVC,SCT,0.00,0.0,WeatherDisplay:10.37,2013-01-29 03:10:00,
2013-01-28 22:15:00,25.0,23.2,29.95,SSE,158,0.0,0.0,93,0.00,OVC,SCT,0.00,0.0,WeatherDisplay:10.37,2013-01-29 03:15:00,
2013-01-28 22:25:00,25.0,23.2,29.95,SSE,158,0.0,0.0,93,0.00,OVC,SCT,0.00,0.0,WeatherDisplay:10.37,2013-01-29 03:25:00,
2013-01-28 22:31:00,25.0,23.2,29.94,SSE,158,0.0,0.0,93,0.00,OVC,SCT,0.00,0.0,WeatherDisplay:10.37,2013-01-29 03:31:00,
2013-01-28 22:40:00,25.0,23.2,29.95,SSE,158,0.0,0.0,93,0.00,OVC,SCT,0.00,0.0,WeatherDisplay:10.37,2013-01-29 03:40:00,
2013-01-28 22:45:00,25.0,23.2,29.95,SSE,158,0.0,0.0,93,0.00,OVC,SCT,0.00,0.0,WeatherDisplay:10.37,2013-01-29 03:45:00,
2013-01-28 22:55:00,25.0,23.2,29.95,SSE,158,0.0,0.0,93,0.00,OVC,SCT,0.00,0.0,WeatherDisplay:10.37,2013-01-29 03:55:00,
2013-01-28 23:01:00,25.0,23.2,29.95,SSE,158,0.0,0.0,93,0.00,OVC,SCT,0.00,0.0,WeatherDisplay:10.37,2013-01-29 04:01:00,
2013-01-28 23:10:00,24.8,23.1,29.95,SSE,158,0.0,0.0,93,0.00,OVC,SCT,0.00,0.0,WeatherDisplay:10.37,2013-01-29 04:10:00,
2013-01-28 23:15:00,24.8,23.1,29.94,SSE,158,0.0,0.0,93,0.00,OVC,SCT,0.00,0.0,WeatherDisplay:10.37,2013-01-29 04:15:00,
2013-01-28 23:25:00,24.8,23.1,29.94,SSE,158,0.0,0.0,93,0.00,OVC,SCT,0.00,0.0,WeatherDisplay:10.37,2013-01-29 04:25:00,
2013-01-28 23:31:00,24.9,23.1,29.95,SSE,158,0.0,0.0,93,0.00,OVC,SCT,0.00,0.0,WeatherDisplay:10.37,2013-01-29 04:31:00,
2013-01-28 23:40:00,24.8,23.1,29.94,SSE,158,0.0,0.0,93,0.00,OVC,SCT,0.00,0.0,WeatherDisplay:10.37,2013-01-29 04:40:00,
2013-01-28 23:45:00,24.8,23.1,29.94,SSE,158,0.0,0.0,93,0.00,OVC,SCT,0.00,0.0,WeatherDisplay:10.37,2013-01-29 04:45:00,
2013-01-28 23:55:00,24.8,23.1,29.94,SSE,158,0.0,0.0,93,0.00,OVC,SCT,0.00,0.0,WeatherDisplay:10.37,2013-01-29 04:55:00,